Regional Weather Roundup
Issued by NWS

Home | Current Version | Previous Version | Graphics & Text | Print | Product List | Glossary On
Versions: 1 2 3 4 5 6 7 8 9 10 11 12 13 14 15 16 17 18 19 20 21 22 23 24 25 26 27 28 29 30 31 32 33 34 35 36 37 38 39 40 41 42 43 44 45 46 47 48 49
571
ASUS45 KPSR 080510
RWRAZ

ARIZONA HOURLY REGIONAL WEATHER ROUNDUP
NATIONAL WEATHER SERVICE PHOENIX AZ
1000 PM MST SUN FEB 07 2016

NOTE: FAIR INDICATES FEW OR NO CLOUDS BELOW 12,000 FEET WITH NO
SIGNIFICANT WEATHER AND/OR OBSTRUCTIONS TO VISIBILITY.

AZZ001>003-036-080600-
NORTHWEST ARIZONA

CITY           SKY/WX    TMP DP  RH WIND       PRES   REMARKS
BULLHEAD CITY  CLEAR     66  19  16 N29G38    30.24F
KINGMAN        CLEAR     50  22  33 N10       30.34F
$$

AZZ004>008-015-016-018-080600-
NORTH CENTRAL ARIZONA

CITY           SKY/WX    TMP DP  RH WIND       PRES   REMARKS
GRAND CANYON   CLEAR     29  17  61 CALM      30.48R
WILLIAMS       CLEAR     28  18  64 S5        30.48R WCI  23
PRESCOTT       CLEAR     38  21  50 CALM      30.36R
FLAGSTAFF      CLEAR     37  16  42 E13       30.44R WCI  29
PAYSON         CLEAR     52  14  22 NE17G24   30.35R
PAGE           CLEAR     36  23  59 W5        30.50R WCI  32
$$

AZZ009>014-017-080600-
NORTHEAST ARIZONA

CITY           SKY/WX    TMP DP  RH WIND       PRES   REMARKS
WINSLOW        PTCLDY    31  17  56 W3        30.44R
SAINT JOHNS    CLEAR     31  18  58 S5        30.41R WCI  26
WINDOW ROCK    CLEAR     28   0  29 S5        30.44R WCI  23
SHOW LOW       CLEAR     32  18  55 NE3       30.44R
$$

AZZ023-080600-
GREATER PHOENIX AREA

CITY           SKY/WX    TMP DP  RH WIND       PRES   REMARKS
PHOENIX        PTCLDY    63  27  25 E5        30.14S
BUCKEYE        CLEAR     55  27  33 CALM      30.17R
LUKE AFB       CLEAR     67  22  18 N13       30.14S
DEER VALLEY    CLEAR     62  22  21 NE7       30.16S
SCOTTSDALE     CLEAR     68  19  15 N8        30.17F
MESA-GATEWAY   CLEAR     55  30  38 SE6       30.15S
$$

AZZ027-028-080600-
SOUTHWEST MARICOPA COUNTY AND PINAL COUNTY

CITY           SKY/WX    TMP DP  RH WIND       PRES   REMARKS
CASA GRANDE    PTCLDY    57  25  28 N9        30.16S
GILA BEND      FAIR      53  27  37 SE2       30.13S
$$

AZZ503-504-507>509-080600-
SOUTHEAST ARIZONA

CITY           SKY/WX    TMP DP  RH WIND       PRES   REMARKS
TUCSON         PTCLDY    50  23  34 S6        30.21R
DAVIS-MONTHAN  MOCLDY    49  22  33 SE9       30.19R
NOGALES        CLOUDY    52  13  21 N5        30.22R
SIERRA VISTA   MOCLDY    48  14  25 NW1       30.28R
DOUGLAS        CLOUDY    43  12  28 N7        30.27R
SAFFORD        PTCLDY    44  20  38 E5        30.26R
$$

AZZ020-021-025-026-031-080600-
SOUTHWEST ARIZONA

CITY           SKY/WX    TMP DP  RH WIND       PRES   REMARKS
YUMA           PTCLDY    68  23  18 N9        30.14S
$$

CAZ031-033-041-043-047-048-061-080600-
SOUTHERN CALIFORNIA

CITY           SKY/WX    TMP DP  RH WIND       PRES   REMARKS
DOWNTOWN L.A.  CLEAR     63  33  32 CALM      30.11R
L.A. AIRPORT   CLEAR     65  29  25 CALM      30.11R
SAN DIEGO      CLEAR     65  23  20 CALM      30.11S
BURBANK        CLEAR     76  13   9 N3        30.12R
ONTARIO        CLEAR     75  13   9 NE22G33   30.14R
RIVERSIDE      CLEAR     73  14  10 NE10G23   30.17R
PALM SPRINGS   CLEAR     73  18  12 NW9       30.22S
EL CENTRO NAS  CLEAR     54  21  27 W8        30.17S
IMPERIAL       CLEAR     59  27  29 W6        30.15S
BLYTHE         CLEAR     63  21  20 N9        30.18R
NEEDLES        CLEAR     67  20  16 N17       30.25R
$$

NVZ020-UTZ003-080600-
SOUTHERN NEVADA-UTAH

CITY           SKY/WX    TMP DP  RH WIND       PRES   REMARKS
LAS VEGAS      CLEAR     58  24  27 NE9       30.36R
SALT LAKE CITY PTCLDY    29  25  85 CALM      30.66S FOG
$$

NMZ009-TXZ055-080600-
NEW MEXICO-WEST TEXAS

CITY           SKY/WX    TMP DP  RH WIND       PRES   REMARKS
ALBUQUERQUE    CLOUDY    43  19  38 N7        30.39R
EL PASO        CLOUDY    45  15  30 E7        30.29R
$$


........................KEY........................
SKY/WX - SKY CONDITION/WEATHER
TMP    - TEMPERATURE IN FAHRENHEIT
DP     - DEW POINT IN FAHRENHEIT
RH     - RELATIVE HUMIDITY IN PERCENT
WIND   - DIRECTION AND SPEED IN MILES PER HOUR (MPH)
VRB    - VARIABLE WIND DIRECTION
PRES   - MEAN SEA LEVEL PRESSURE IN INCHES OF MERCURY
         F - FALLING PRESSURE   R - RISING PRESSURE
         S - STEADY PRESSURE
VSB    - VISIBILITY IN MILES
HX     - HEAT INDEX IN FAHRENHEIT
WCI    - WIND CHILL INDEX IN FAHRENHEIT
TC     - TEMPERATURE IN CELSIUS WHICH IS ALSO KNOWN AS
         TEMPERATURE IN CENTIGRADE
AFB    - AIR FORCE BASE
         LUKE AFB IS LUKE AIR FORCE BASE
         DAVIS-MONTHAN IS DAVIS-MONTHAN AIR FORCE BASE
NAS    - NAVAL AIR STATION
         EL CENTRO NAS IS EL CENTRO NAVAL AIR STATION
N/A    - NOT AVAILABLE





USA.gov is the U.S. government's official web portal to all federal, state and local government web resources and services.